Wind_Speed
6 6 6 7 7 8 9 8 8 9 10 10 10 10 10 10 10 11 12 13 14 14 15 16 17 17 16 16 16 17 18 18 19 20 21 22 23 23
6 6 6 6 7 7 8 8 9 9 10 10 10 10 9 10 11 11 12 13 14 15 15 16 16 17 17 17 17 18 19 19 21 22 23 23 24 23
6 6 6 7 7 7 8 8 9 9 9 10 11 11 11 11 11 12 12 13 13 14 15 16 17 17 18 18 19 20 21 22 23 23 24 25 25 25
7 7 7 7 8 8 8 8 9 10 10 11 12 12 13 13 13 13 14 14 15 16 16 17 17 18 18 19 20 21 22 23 24 25 25 26 26 26
8 8 8 8 9 8 9 9 10 10 11 11 12 13 13 14 14 15 15 15 15 16 17 17 18 18 19 20 21 22 23 24 25 25 26 26 27 27
10 10 10 10 9 10 10 11 11 11 12 12 13 13 14 14 15 15 15 16 16 16 17 18 18 19 20 21 22 23 24 24 25 26 27 28 28 28
11 11 11 11 11 11 12 12 12 12 13 13 14 14 14 15 15 15 16 16 17 17 18 19 20 20 22 23 23 23 24 25 26 27 28 28 28 28
11 12 12 12 12 13 13 13 14 14 14 14 15 15 15 15 15 16 16 17 18 18 19 20 21 22 23 23 24 24 25 26 26 27 28 28 28 28
13 13 13 14 14 14 15 15 15 15 15 15 15 16 16 16 17 17 18 19 19 20 21 22 23 24 24 24 24 25 26 26 26 27 27 28 28 29
14 14 14 15 15 15 15 15 15 16 16 17 17 17 17 17 18 19 20 21 21 22 23 24 25 25 25 26 27 27 27 27 27 28 28 29 29 30
16 16 16 16 16 16 16 16 17 17 17 18 18 18 19 20 20 21 22 23 23 24 25 26 26 27 27 27 28 28 28 28 28 29 29 29 30 30
18 18 18 18 17 17 17 17 18 18 19 19 19 20 20 21 22 23 24 25 25 26 28 28 28 28 28 28 28 29 29 30 30 30 31 31 31 31
19 20 20 19 19 19 19 20 20 20 20 21 22 22 23 23 24 25 26 27 28 28 29 30 29 29 29 30 30 31 31 31 32 32 32 32 32 32
21 21 22 22 22 22 22 22 22 23 23 24 24 24 25 26 27 27 28 29 30 30 30 30 31 31 31 31 32 32 32 33 33 33 33 33 33 34
23 23 23 24 24 24 24 25 25 25 25 26 26 26 27 28 29 29 30 31 31 32 32 33 33 32 32 32 33 34 34 34 35 35 34 35 35 35
25 25 25 26 26 26 26 27 27 27 27 27 28 29 30 30 30 31 32 33 33 34 34 35 34 34 34 34 34 34 35 35 35 36 36 36 37 37
27 27 27 27 27 28 28 29 29 29 30 30 31 31 32 33 34 34 34 35 35 35 36 36 36 36 35 35 35 36 36 36 37 38 38 38 38 38
29 29 30 30 29 30 30 31 31 31 32 32 33 34 34 35 35 35 35 35 36 36 36 36 36 36 36 37 37 37 38 39 39 39 39 39 38 38
30 31 31 32 32 32 32 33 33 33 34 35 35 36 36 36 36 36 37 37 37 36 37 37 37 37 37 38 38 39 39 40 40 40 40 40 38 37
31 32 32 33 33 33 34 34 35 36 36 37 37 37 37 37 37 38 38 38 38 37 37 38 38 39 39 39 39 40 41 41 41 41 40 39 38 37
33 33 33 33 34 34 35 35 36 37 38 38 38 39 39 39 39 39 39 39 39 39 39 39 40 41 41 41 40 40 40 41 41 40 40 39 37 37
34 34 35 34 35 36 36 36 36 37 38 38 39 40 41 41 41 41 40 40 40 40 40 41 41 42 42 42 41 40 39 39 39 39 39 39 38 37
35 35 36 37 37 37 37 38 38 38 39 39 40 41 42 41 41 41 41 41 41 41 42 42 42 42 41 41 40 39 38 38 39 38 38 38 38 38
Wind_Direction
299 296 295 293 295 289 289 284 280 278 279 280 281 283 280 277 280 283 286 290 291 291 290 287 286 287 286 283 282 280 280 282 285 287 288 288 289 288
296 295 291 290 292 290 292 289 286 283 284 281 279 280 283 283 284 286 290 292 293 293 293 292 290 289 288 285 285 284 284 285 288 289 288 288 288 287
294 297 290 287 287 287 289 291 293 290 286 282 281 282 285 286 287 288 290 292 293 293 293 293 292 290 290 288 286 287 288 289 291 291 291 290 289 288
291 295 292 288 287 285 289 292 292 289 286 285 284 285 286 285 285 288 289 290 291 292 294 294 293 290 290 291 290 290 290 291 292 292 292 291 290 290
288 293 289 288 289 287 289 293 294 291 288 286 285 287 289 288 288 290 292 292 294 294 294 294 295 294 293 292 292 293 293 293 292 292 293 294 293 292
286 288 288 288 291 293 292 292 293 290 287 286 285 286 288 289 289 290 293 294 296 296 296 297 297 297 296 295 296 295 295 294 294 295 294 295 295 293
284 285 287 287 291 292 292 290 290 289 287 287 287 286 288 289 289 289 291 294 295 296 297 297 298 299 299 299 298 298 297 297 296 297 296 295 295 294
284 284 286 288 286 290 289 290 291 290 290 288 287 286 288 289 290 291 291 294 295 296 297 297 298 299 300 300 299 300 300 300 299 298 297 297 295 294
283 285 286 287 286 286 287 287 288 289 290 289 289 288 289 289 290 292 295 295 295 296 297 298 299 300 300 300 300 302 302 302 301 299 298 297 296 296
281 283 286 287 287 289 288 287 287 287 287 286 285 285 285 287 291 292 294 295 295 296 298 298 299 300 300 300 300 301 302 302 301 300 299 298 297 297
280 282 285 287 289 290 290 290 289 289 288 287 285 286 287 288 290 291 292 293 294 296 298 299 298 298 298 299 300 301 301 301 300 299 298 298 298 298
279 281 283 285 287 288 288 289 290 292 292 291 290 289 289 289 290 290 292 293 294 296 297 298 298 297 297 298 298 298 298 299 299 299 299 298 298 297
277 279 282 284 285 285 285 287 288 289 289 291 292 292 292 291 291 291 290 291 293 295 297 298 297 297 297 297 297 297 298 298 299 299 298 298 297 297
277 278 279 282 283 283 284 285 286 286 287 289 290 290 291 292 292 292 292 293 294 295 297 298 297 296 296 296 296 296 297 298 298 298 298 297 297 297
278 279 279 281 282 283 283 284 285 285 287 288 289 290 291 292 292 292 292 293 295 296 297 298 297 296 294 295 295 296 297 298 299 298 298 298 297 297
279 279 280 280 280 282 283 284 284 285 287 288 289 289 289 291 291 292 293 294 295 296 297 297 295 295 294 294 295 295 295 296 297 297 297 298 298 297
279 279 280 280 280 281 282 283 283 285 286 287 288 289 289 290 291 291 292 293 294 295 296 294 293 294 294 294 294 295 295 295 296 296 296 297 298 297
280 280 280 279 279 280 281 282 283 283 284 286 288 290 290 291 291 292 293 294 294 294 294 293 293 293 294 295 295 294 294 295 295 296 296 296 296 296
281 281 281 279 278 278 280 282 283 283 284 286 288 289 291 291 291 291 292 293 293 293 294 294 294 293 294 294 294 294 294 294 295 296 296 296 295 295
281 282 282 280 279 278 278 280 281 282 284 286 287 289 290 290 290 291 291 291 292 292 293 294 294 294 293 293 294 294 295 295 295 295 295 295 295 294
281 281 281 280 279 278 279 280 282 283 284 285 287 288 289 289 290 290 290 290 291 291 292 293 293 293 293 293 295 295 295 295 295 294 294 294 293 293
280 281 281 280 280 280 279 279 281 283 285 286 287 288 288 288 289 289 290 290 290 291 292 292 293 293 293 294 295 295 295 294 294 295 295 294 294 293
281 281 281 281 281 280 279 280 281 283 285 287 288 288 288 288 288 288 289 290 290 290 291 292 293 293 294 294 294 295 294 293 294 294 295 295 295 294
Height
5822 5821 5820 5820 5819 5818 5817 5817 5817 5816 5815 5815 5815 5814 5813 5813 5812 5811 5811 5810 5809 5807 5806 5805 5803 5802 5801 5800 5799 5798 5797 5796 5795 5794 5793 5791 5790 5788
5820 5819 5819 5818 5817 5816 5815 5814 5814 5813 5813 5812 5812 5812 5811 5810 5809 5809 5807 5806 5805 5804 5802 5801 5799 5798 5797 5795 5794 5793 5792 5791 5790 5788 5786 5785 5783 5781
5818 5817 5817 5816 5815 5814 5813 5812 5812 5811 5810 5810 5809 5809 5808 5808 5807 5805 5804 5803 5802 5800 5798 5797 5795 5793 5792 5791 5789 5788 5787 5785 5784 5782 5780 5778 5776 5774
5816 5815 5814 5813 5813 5812 5811 5810 5809 5808 5808 5807 5806 5806 5805 5804 5803 5802 5801 5800 5798 5796 5795 5793 5791 5789 5787 5786 5784 5783 5781 5779 5777 5775 5773 5771 5769 5766
5813 5813 5812 5811 5810 5809 5809 5808 5807 5806 5805 5805 5804 5803 5802 5801 5800 5799 5797 5796 5794 5792 5790 5788 5787 5785 5783 5781 5779 5777 5775 5773 5770 5768 5765 5763 5761 5759
5811 5810 5809 5808 5807 5807 5806 5805 5804 5803 5802 5801 5801 5800 5799 5797 5796 5795 5793 5791 5790 5788 5786 5784 5782 5780 5778 5776 5773 5771 5768 5766 5763 5761 5758 5756 5753 5750
5808 5807 5806 5805 5805 5804 5803 5802 5801 5800 5799 5798 5797 5796 5795 5794 5792 5791 5789 5787 5786 5783 5782 5779 5777 5775 5772 5770 5767 5764 5762 5759 5756 5754 5751 5748 5745 5742
5805 5804 5803 5802 5801 5801 5800 5798 5798 5796 5795 5794 5793 5792 5791 5789 5788 5786 5785 5783 5781 5779 5777 5775 5772 5769 5766 5763 5761 5758 5755 5752 5749 5746 5743 5740 5737 5734
5801 5800 5800 5799 5798 5797 5796 5795 5794 5792 5791 5790 5789 5788 5786 5785 5784 5782 5780 5778 5776 5774 5772 5769 5766 5763 5760 5757 5754 5751 5748 5745 5742 5739 5736 5733 5730 5727
5797 5796 5795 5794 5793 5792 5791 5790 5789 5788 5787 5786 5785 5783 5781 5780 5778 5777 5775 5773 5771 5768 5765 5763 5760 5757 5754 5750 5747 5744 5741 5738 5734 5731 5728 5725 5722 5718
5793 5792 5791 5790 5789 5788 5787 5786 5784 5783 5782 5780 5779 5777 5776 5774 5773 5771 5769 5767 5765 5762 5759 5756 5753 5750 5747 5744 5740 5737 5733 5730 5727 5723 5720 5717 5714 5710
5788 5787 5786 5785 5784 5783 5782 5781 5779 5778 5776 5775 5773 5772 5770 5768 5766 5764 5762 5760 5758 5755 5752 5749 5746 5742 5740 5737 5733 5729 5726 5722 5719 5715 5712 5708 5705 5702
5782 5781 5780 5780 5779 5777 5776 5775 5774 5772 5771 5769 5767 5765 5763 5761 5759 5757 5755 5753 5750 5747 5744 5741 5738 5734 5731 5729 5725 5721 5718 5714 5710 5706 5703 5699 5696 5692
5776 5775 5774 5773 5772 5771 5770 5769 5767 5766 5764 5763 5761 5759 5756 5754 5752 5749 5747 5744 5742 5739 5735 5732 5729 5726 5723 5720 5716 5713 5709 5705 5701 5698 5694 5690 5686 5682
5769 5768 5767 5767 5766 5764 5763 5762 5760 5759 5757 5755 5753 5751 5749 5746 5744 5741 5738 5736 5733 5729 5726 5722 5719 5716 5713 5710 5707 5703 5699 5696 5692 5688 5684 5680 5676 5672
5761 5761 5760 5759 5758 5757 5755 5754 5752 5751 5749 5747 5745 5743 5740 5738 5735 5732 5729 5727 5724 5720 5716 5712 5709 5706 5703 5700 5697 5693 5689 5686 5682 5678 5674 5670 5666 5662
5753 5752 5751 5750 5749 5748 5747 5745 5744 5742 5740 5738 5736 5734 5731 5729 5726 5723 5720 5717 5714 5710 5706 5702 5699 5696 5692 5690 5686 5682 5679 5675 5671 5667 5663 5659 5655 5651
5744 5743 5742 5741 5740 5739 5737 5736 5734 5732 5730 5728 5726 5724 5721 5718 5715 5712 5709 5706 5703 5699 5696 5692 5688 5685 5682 5678 5675 5671 5667 5663 5659 5655 5651 5648 5644 5639
5734 5733 5732 5730 5729 5728 5727 5726 5724 5722 5720 5718 5716 5713 5710 5708 5705 5702 5698 5695 5692 5688 5684 5681 5677 5674 5671 5668 5664 5659 5655 5651 5647 5643 5639 5636 5632 5628
5723 5722 5721 5720 5718 5717 5716 5714 5713 5711 5709 5707 5705 5702 5699 5696 5693 5690 5687 5683 5680 5677 5673 5669 5666 5662 5658 5656 5652 5648 5643 5639 5635 5631 5627 5623 5620 5616
5713 5711 5710 5708 5707 5706 5704 5703 5701 5699 5697 5695 5693 5690 5687 5685 5682 5678 5675 5671 5668 5665 5661 5658 5654 5649 5646 5643 5640 5636 5631 5626 5622 5618 5615 5611 5608 5605
5701 5700 5699 5697 5695 5694 5692 5691 5689 5687 5685 5683 5681 5678 5675 5672 5669 5666 5662 5659 5656 5652 5649 5646 5641 5637 5633 5630 5627 5623 5619 5615 5610 5605 5602 5599 5595 5593
5690 5688 5687 5685 5683 5682 5680 5678 5677 5675 5673 5671 5668 5665 5662 5659 5656 5653 5650 5646 5643 5640 5636 5633 5629 5625 5621 5617 5614 5610 5607 5603 5599 5595 5591 5587 5584 5580